N1CU KTEB-KCAK

Flight info

Callsign N1CU
Flight time 1h 9m
Altitude 38000
Route NEWEL J60 PSB SOORD ZZIPS1
Aircraft CL60/M-SBDE1E2E3FGHIJ1J4J5J7M3RWXYZ/LB1V1D1

Departure

Time 2026-05-09 00:50
Airport Teterboro Airport (KTEB)

Arrival

Time 2026-05-09 02:00
Airport Akron Canton Regional Airport (KCAK)
Time Latitude Longitude Altitude Speed Heading
2026-05-09 00:18 40.84631 -74.06466 12 ft 0 kts 228°
2026-05-09 00:33 40.84627 -74.06473 12 ft 2 kts 238°
2026-05-09 00:33 40.84614 -74.06518 12 ft 7 kts 261°
2026-05-09 00:33 40.84625 -74.06601 12 ft 5 kts 308°
2026-05-09 00:34 40.84640 -74.06619 12 ft 5 kts 321°
2026-05-09 00:34 40.84664 -74.06647 12 ft 4 kts 318°
2026-05-09 00:34 40.84669 -74.06653 12 ft 0 kts 318°
2026-05-09 00:34 40.84670 -74.06654 12 ft 0 kts 318°
2026-05-09 00:35 40.84671 -74.06654 12 ft 0 kts 318°
2026-05-09 00:35 40.84671 -74.06655 12 ft 0 kts 318°
2026-05-09 00:35 40.84672 -74.06657 12 ft 0 kts 318°
2026-05-09 00:35 40.84673 -74.06657 12 ft 0 kts 318°
2026-05-09 00:36 40.84674 -74.06658 12 ft 0 kts 318°
2026-05-09 00:36 40.84675 -74.06659 12 ft 0 kts 318°
2026-05-09 00:36 40.84676 -74.06660 12 ft 0 kts 318°
2026-05-09 00:36 40.84676 -74.06661 12 ft 0 kts 318°
2026-05-09 00:37 40.84677 -74.06662 12 ft 0 kts 318°
2026-05-09 00:37 40.84678 -74.06663 12 ft 0 kts 318°
2026-05-09 00:37 40.84679 -74.06664 12 ft 0 kts 318°
2026-05-09 00:37 40.84679 -74.06665 12 ft 0 kts 318°
2026-05-09 00:38 40.84680 -74.06666 12 ft 0 kts 318°
2026-05-09 00:38 40.84681 -74.06667 12 ft 0 kts 318°
2026-05-09 00:38 40.84682 -74.06667 12 ft 0 kts 318°
2026-05-09 00:38 40.84683 -74.06669 12 ft 0 kts 318°
2026-05-09 00:39 40.84684 -74.06670 12 ft 0 kts 318°
2026-05-09 00:39 40.84685 -74.06672 12 ft 0 kts 317°
2026-05-09 00:39 40.84686 -74.06673 12 ft 0 kts 317°
2026-05-09 00:40 40.84687 -74.06673 12 ft 0 kts 317°
2026-05-09 00:40 40.84687 -74.06674 12 ft 0 kts 317°
2026-05-09 00:40 40.84688 -74.06676 12 ft 0 kts 317°
2026-05-09 00:41 40.84690 -74.06677 12 ft 0 kts 317°
2026-05-09 00:41 40.84691 -74.06678 12 ft 0 kts 317°
2026-05-09 00:41 40.84692 -74.06679 12 ft 0 kts 317°
2026-05-09 00:41 40.84692 -74.06680 12 ft 0 kts 317°
2026-05-09 00:42 40.84693 -74.06681 12 ft 0 kts 317°
2026-05-09 00:42 40.84694 -74.06682 12 ft 0 kts 317°
2026-05-09 00:42 40.84694 -74.06683 12 ft 0 kts 317°
2026-05-09 00:43 40.84723 -74.06704 12 ft 7 kts 353°
2026-05-09 00:43 40.84772 -74.06666 12 ft 9 kts 45°
2026-05-09 00:43 40.84821 -74.06596 12 ft 12 kts 47°
2026-05-09 00:44 40.84874 -74.06519 12 ft 10 kts 54°
2026-05-09 00:44 40.84845 -74.06428 12 ft 13 kts 126°
2026-05-09 00:44 40.84798 -74.06344 12 ft 8 kts 127°
2026-05-09 00:44 40.84764 -74.06284 12 ft 9 kts 127°
2026-05-09 00:45 40.84733 -74.06231 11 ft 9 kts 128°
2026-05-09 00:45 40.84696 -74.06170 11 ft 3 kts 128°
2026-05-09 00:45 40.84675 -74.06134 11 ft 0 kts 135°
2026-05-09 00:45 40.84654 -74.06130 11 ft 5 kts 202°
2026-05-09 00:46 40.84620 -74.06134 11 ft 5 kts 175°
2026-05-09 00:46 40.84568 -74.06132 11 ft 9 kts 182°
2026-05-09 00:46 40.84531 -74.06134 11 ft 4 kts 182°
2026-05-09 00:46 40.84481 -74.06137 11 ft 9 kts 184°
2026-05-09 00:47 40.84458 -74.06139 11 ft 0 kts 184°
2026-05-09 00:47 40.84441 -74.06140 11 ft 3 kts 184°
2026-05-09 00:47 40.84402 -74.06143 11 ft 1 kts 184°
2026-05-09 00:47 40.84376 -74.06145 11 ft 6 kts 184°
2026-05-09 00:48 40.84329 -74.06148 11 ft 5 kts 180°
2026-05-09 00:48 40.84273 -74.06149 11 ft 10 kts 183°
2026-05-09 00:48 40.84188 -74.06158 11 ft 11 kts 185°
2026-05-09 00:48 40.84104 -74.06164 11 ft 14 kts 183°
2026-05-09 00:49 40.84024 -74.06170 11 ft 10 kts 185°
2026-05-09 00:49 40.83927 -74.06177 11 ft 17 kts 183°
2026-05-09 00:49 40.83883 -74.06087 11 ft 10 kts 93°
2026-05-09 00:49 40.83922 -74.06036 11 ft 10 kts
2026-05-09 00:50 40.84022 -74.06029 11 ft 48 kts
2026-05-09 00:50 40.84771 -74.05971 49 ft 155 kts
2026-05-09 00:50 40.86002 -74.05859 790 ft 189 kts
2026-05-09 00:50 40.87329 -74.05328 1587 ft 216 kts 25°
2026-05-09 00:51 40.88763 -74.04264 1898 ft 252 kts 28°
2026-05-09 00:51 40.90433 -74.03528 1973 ft 253 kts 359°
2026-05-09 00:51 40.92108 -74.04147 2022 ft 259 kts 324°
2026-05-09 00:51 40.93221 -74.06057 3023 ft 280 kts 289°
2026-05-09 00:52 40.93489 -74.08536 4252 ft 275 kts 270°
2026-05-09 00:52 40.93421 -74.11067 5480 ft 280 kts 268°
2026-05-09 00:52 40.93328 -74.13457 7531 ft 269 kts 268°
2026-05-09 00:52 40.93230 -74.15914 8913 ft 271 kts 268°
2026-05-09 00:53 40.93134 -74.18361 9633 ft 268 kts 268°
2026-05-09 00:53 40.93034 -74.20856 9989 ft 285 kts 268°
2026-05-09 00:53 40.92928 -74.23497 11348 ft 294 kts 268°
2026-05-09 00:53 40.92891 -74.26094 13213 ft 284 kts 272°
2026-05-09 00:54 40.92897 -74.28603 14840 ft 278 kts 273°
2026-05-09 00:54 40.92902 -74.31153 16021 ft 285 kts 273°
2026-05-09 00:54 40.92905 -74.33843 16654 ft 298 kts 273°
2026-05-09 00:54 40.92901 -74.36586 16931 ft 297 kts 273°
2026-05-09 00:55 40.92894 -74.39288 17005 ft 296 kts 273°
2026-05-09 00:55 40.92885 -74.42014 17008 ft 295 kts 272°
2026-05-09 00:55 40.92874 -74.44739 17007 ft 293 kts 273°
2026-05-09 00:55 40.92862 -74.47450 17006 ft 303 kts 273°
2026-05-09 00:56 40.92851 -74.50360 17003 ft 322 kts 272°
2026-05-09 00:56 40.92834 -74.53329 17322 ft 334 kts 272°
2026-05-09 00:56 40.92812 -74.56337 18779 ft 326 kts 273°
2026-05-09 00:56 40.92789 -74.59189 20406 ft 312 kts 273°
2026-05-09 00:57 40.92767 -74.61995 21742 ft 305 kts 274°
2026-05-09 00:57 40.92746 -74.64758 22791 ft 304 kts 273°
2026-05-09 00:57 40.92724 -74.67569 23725 ft 308 kts 272°
2026-05-09 00:57 40.92701 -74.70403 24610 ft 312 kts 272°
2026-05-09 00:58 40.92677 -74.73280 25505 ft 315 kts 272°
2026-05-09 00:58 40.92650 -74.76166 26404 ft 316 kts 272°
2026-05-09 00:58 40.92623 -74.79063 27243 ft 318 kts 271°
2026-05-09 00:58 40.92594 -74.82027 28028 ft 320 kts 271°
2026-05-09 00:59 40.92564 -74.84957 28708 ft 323 kts 271°
2026-05-09 00:59 40.92533 -74.87942 29374 ft 326 kts 271°
2026-05-09 00:59 40.92501 -74.90962 30029 ft 328 kts 271°
2026-05-09 00:59 40.92468 -74.93961 30677 ft 329 kts 270°
2026-05-09 01:00 40.92433 -74.97007 31161 ft 332 kts 271°
2026-05-09 01:00 40.92399 -75.00030 31686 ft 332 kts 270°
2026-05-09 01:00 40.92361 -75.03127 32164 ft 334 kts 270°
2026-05-09 01:00 40.92324 -75.06201 32567 ft 336 kts 271°
2026-05-09 01:01 40.92285 -75.09300 32970 ft 338 kts 270°
2026-05-09 01:01 40.92246 -75.12433 33378 ft 340 kts 271°
2026-05-09 01:01 40.92188 -75.15522 33752 ft 340 kts 268°
2026-05-09 01:01 40.91817 -75.18629 34188 ft 342 kts 260°
2026-05-09 01:02 40.91141 -75.21616 34664 ft 341 kts 257°
2026-05-09 01:02 40.90434 -75.24614 34923 ft 340 kts 257°
2026-05-09 01:02 40.89726 -75.27628 35204 ft 341 kts 258°
2026-05-09 01:02 40.89029 -75.30595 35480 ft 342 kts 257°
2026-05-09 01:03 40.88319 -75.33615 36038 ft 343 kts 257°
2026-05-09 01:03 40.87616 -75.36598 36047 ft 344 kts 257°
2026-05-09 01:03 40.86897 -75.39652 36365 ft 345 kts 257°
2026-05-09 01:03 40.86185 -75.42663 36712 ft 345 kts 257°
2026-05-09 01:04 40.85466 -75.45704 37029 ft 346 kts 258°
2026-05-09 01:04 40.84750 -75.48728 37315 ft 347 kts 257°
2026-05-09 01:04 40.84031 -75.51765 37582 ft 347 kts 257°
2026-05-09 01:04 40.83307 -75.54813 37866 ft 348 kts 257°
2026-05-09 01:05 40.81850 -75.60944 37962 ft 350 kts 257°
2026-05-09 01:06 40.79659 -75.70122 37959 ft 348 kts 257°
2026-05-09 01:06 40.78209 -75.76183 37959 ft 347 kts 257°
2026-05-09 01:07 40.76747 -75.82278 37962 ft 347 kts 257°
2026-05-09 01:07 40.75289 -75.88342 37960 ft 346 kts 257°
2026-05-09 01:08 40.73826 -75.94410 37960 ft 347 kts 256°
2026-05-09 01:08 40.72372 -76.00424 37961 ft 346 kts 257°
2026-05-09 01:09 40.70901 -76.06495 37956 ft 345 kts 256°
2026-05-09 01:09 40.69429 -76.12559 37957 ft 352 kts 257°
2026-05-09 01:10 40.67920 -76.18768 37963 ft 363 kts 257°
2026-05-09 01:10 40.67115 -76.25359 37972 ft 368 kts 271°
2026-05-09 01:11 40.67852 -76.32107 37961 ft 377 kts 279°
2026-05-09 01:11 40.68874 -76.38937 37967 ft 381 kts 279°
2026-05-09 01:12 40.69899 -76.45812 37966 ft 382 kts 279°
2026-05-09 01:12 40.70919 -76.52687 37967 ft 382 kts 279°
2026-05-09 01:13 40.71933 -76.59553 37955 ft 381 kts 279°
2026-05-09 01:13 40.72944 -76.66421 37954 ft 381 kts 279°
2026-05-09 01:14 40.73948 -76.73277 37956 ft 381 kts 278°
2026-05-09 01:14 40.74941 -76.80075 37960 ft 373 kts 278°
2026-05-09 01:15 40.75910 -76.86752 37954 ft 369 kts 279°
2026-05-09 01:15 40.76870 -76.93394 37952 ft 369 kts 278°
2026-05-09 01:16 40.77831 -77.00064 37948 ft 370 kts 278°
2026-05-09 01:16 40.78791 -77.06769 37951 ft 370 kts 279°
2026-05-09 01:17 40.80217 -77.16773 37944 ft 371 kts 279°
2026-05-09 01:17 40.81165 -77.23457 37946 ft 371 kts 278°
2026-05-09 01:18 40.82113 -77.30167 37952 ft 370 kts 278°
2026-05-09 01:18 40.83049 -77.36828 37936 ft 370 kts 279°
2026-05-09 01:19 40.83984 -77.43518 37940 ft 371 kts 278°
2026-05-09 01:19 40.84916 -77.50205 37951 ft 371 kts 278°
2026-05-09 01:20 40.85851 -77.56943 37947 ft 372 kts 278°
2026-05-09 01:20 40.86781 -77.63680 37955 ft 372 kts 278°
2026-05-09 01:21 40.87705 -77.70398 37938 ft 374 kts 278°
2026-05-09 01:21 40.88625 -77.77127 37951 ft 371 kts 278°
2026-05-09 01:22 40.89545 -77.83872 37960 ft 372 kts 278°
2026-05-09 01:22 40.90457 -77.90600 37967 ft 372 kts 278°
2026-05-09 01:23 40.91362 -77.97306 37962 ft 372 kts 277°
2026-05-09 01:23 40.92007 -78.04113 37955 ft 371 kts 275°
2026-05-09 01:24 40.92500 -78.10961 37949 ft 372 kts 275°
2026-05-09 01:24 40.92984 -78.17723 37946 ft 372 kts 274°
2026-05-09 01:25 40.93471 -78.24567 37948 ft 371 kts 275°
2026-05-09 01:25 40.93951 -78.31343 37939 ft 372 kts 275°
2026-05-09 01:26 40.94429 -78.38158 37942 ft 373 kts 274°
2026-05-09 01:26 40.94907 -78.45011 37937 ft 373 kts 274°
2026-05-09 01:27 40.95377 -78.51814 37939 ft 373 kts 274°
2026-05-09 01:27 40.95845 -78.58643 37940 ft 373 kts 275°
2026-05-09 01:28 40.96310 -78.65476 37925 ft 373 kts 274°
2026-05-09 01:28 40.96773 -78.72338 37915 ft 374 kts 274°
2026-05-09 01:29 40.97230 -78.79174 37915 ft 375 kts 274°
2026-05-09 01:29 40.97685 -78.86034 37929 ft 374 kts 274°
2026-05-09 01:30 40.98137 -78.92924 37714 ft 378 kts 274°
2026-05-09 01:30 40.98364 -78.96410 37269 ft 380 kts 274°
2026-05-09 01:30 40.98589 -78.99873 36757 ft 376 kts 274°
2026-05-09 01:31 40.98811 -79.03301 36270 ft 373 kts 274°
2026-05-09 01:31 40.99031 -79.06724 35776 ft 372 kts 274°
2026-05-09 01:31 40.99248 -79.10111 35298 ft 371 kts 274°
2026-05-09 01:31 40.99465 -79.13505 34804 ft 370 kts 274°
2026-05-09 01:32 40.99680 -79.16904 34323 ft 370 kts 274°
2026-05-09 01:32 40.99893 -79.20277 33833 ft 370 kts 274°
2026-05-09 01:32 41.00108 -79.23692 33335 ft 370 kts 275°
2026-05-09 01:32 41.00319 -79.27071 32829 ft 368 kts 275°
2026-05-09 01:33 41.00527 -79.30407 32380 ft 363 kts 274°
2026-05-09 01:33 41.00734 -79.33752 31881 ft 362 kts 275°
2026-05-09 01:33 41.00939 -79.37078 31408 ft 361 kts 275°
2026-05-09 01:33 41.01140 -79.40355 30930 ft 358 kts 275°
2026-05-09 01:34 41.01340 -79.43636 30455 ft 357 kts 276°
2026-05-09 01:34 41.01541 -79.46933 29982 ft 354 kts 275°
2026-05-09 01:34 41.01736 -79.50166 29521 ft 353 kts 275°
2026-05-09 01:34 41.01931 -79.53404 29050 ft 352 kts 276°
2026-05-09 01:35 41.02124 -79.56623 28585 ft 350 kts 275°
2026-05-09 01:35 41.02316 -79.59831 28129 ft 349 kts 275°
2026-05-09 01:35 41.02505 -79.63025 27658 ft 347 kts 275°
2026-05-09 01:35 41.02692 -79.66189 27205 ft 346 kts 275°
2026-05-09 01:36 41.02881 -79.69398 26733 ft 345 kts 275°
2026-05-09 01:36 41.03066 -79.72553 26283 ft 344 kts 275°
2026-05-09 01:36 41.03249 -79.75696 25825 ft 342 kts 275°
2026-05-09 01:36 41.03432 -79.78867 25369 ft 341 kts 275°
2026-05-09 01:37 41.03610 -79.81969 24915 ft 340 kts 276°
2026-05-09 01:37 41.03791 -79.85096 24457 ft 338 kts 274°
2026-05-09 01:37 41.03970 -79.88204 24008 ft 338 kts 274°
2026-05-09 01:37 41.04145 -79.91288 23550 ft 337 kts 275°
2026-05-09 01:38 41.04320 -79.94379 23111 ft 336 kts 275°
2026-05-09 01:38 41.04493 -79.97443 22660 ft 335 kts 275°
2026-05-09 01:38 41.04663 -80.00488 22230 ft 328 kts 275°
2026-05-09 01:38 41.04830 -80.03486 21796 ft 323 kts 275°
2026-05-09 01:39 41.04995 -80.06449 21365 ft 322 kts 275°
2026-05-09 01:39 41.05158 -80.09410 20939 ft 321 kts 274°
2026-05-09 01:39 41.05320 -80.12362 20516 ft 321 kts 274°
2026-05-09 01:39 41.05464 -80.15324 20088 ft 321 kts 272°
2026-05-09 01:40 41.05536 -80.18249 19650 ft 320 kts 272°
2026-05-09 01:40 41.05603 -80.21197 19216 ft 320 kts 272°
2026-05-09 01:40 41.05671 -80.24151 18788 ft 320 kts 272°
2026-05-09 01:40 41.05736 -80.27081 18372 ft 320 kts 272°
2026-05-09 01:41 41.05802 -80.30043 17947 ft 319 kts 272°
2026-05-09 01:41 41.05866 -80.32973 17585 ft 316 kts 271°
2026-05-09 01:41 41.05928 -80.35892 17176 ft 319 kts 272°
2026-05-09 01:41 41.05991 -80.38844 16749 ft 316 kts 271°
2026-05-09 01:42 41.06051 -80.41730 16377 ft 316 kts 271°
2026-05-09 01:42 41.06111 -80.44601 15927 ft 311 kts 271°
2026-05-09 01:42 41.06169 -80.47454 15475 ft 303 kts 271°
2026-05-09 01:42 41.06224 -80.50211 15027 ft 298 kts 271°
2026-05-09 01:43 41.06279 -80.52930 14578 ft 296 kts 270°
2026-05-09 01:43 41.06332 -80.55633 14129 ft 294 kts 271°
2026-05-09 01:43 41.06384 -80.58331 13680 ft 293 kts 270°
2026-05-09 01:43 41.06436 -80.61035 13220 ft 291 kts 271°
2026-05-09 01:44 41.06486 -80.63681 12768 ft 289 kts 270°
2026-05-09 01:44 41.06536 -80.66350 12309 ft 287 kts 269°
2026-05-09 01:44 41.06585 -80.68995 11851 ft 285 kts 270°
2026-05-09 01:44 41.06632 -80.71599 11398 ft 283 kts 270°
2026-05-09 01:45 41.06678 -80.74200 10946 ft 280 kts 270°
2026-05-09 01:45 41.06723 -80.76739 10489 ft 278 kts 270°
2026-05-09 01:45 41.06769 -80.79318 10024 ft 276 kts 269°
2026-05-09 01:45 41.06812 -80.81822 9773 ft 265 kts 269°
2026-05-09 01:46 41.06854 -80.84150 9909 ft 246 kts 269°
2026-05-09 01:46 41.06891 -80.86426 10009 ft 247 kts 269°
2026-05-09 01:46 41.06929 -80.88677 10007 ft 244 kts 269°
2026-05-09 01:46 41.06966 -80.90948 10006 ft 243 kts 269°
2026-05-09 01:47 41.07003 -80.93163 9939 ft 244 kts 269°
2026-05-09 01:47 41.06874 -80.95428 9481 ft 247 kts 258°
2026-05-09 01:47 41.06549 -80.97661 8971 ft 248 kts 259°
2026-05-09 01:47 41.06226 -80.99902 8465 ft 248 kts 259°
2026-05-09 01:48 41.05904 -81.02133 7960 ft 247 kts 258°
2026-05-09 01:48 41.05583 -81.04370 7445 ft 247 kts 258°
2026-05-09 01:48 41.05264 -81.06595 6938 ft 247 kts 258°
2026-05-09 01:48 41.04946 -81.08807 6400 ft 240 kts 259°
2026-05-09 01:49 41.04637 -81.10956 5943 ft 238 kts 258°
2026-05-09 01:49 41.04326 -81.13127 5436 ft 238 kts 259°
2026-05-09 01:49 41.04023 -81.15235 4883 ft 232 kts 258°
2026-05-09 01:49 41.03755 -81.17303 4425 ft 224 kts 265°
2026-05-09 01:50 41.04120 -81.19272 4031 ft 224 kts 299°
2026-05-09 01:50 41.05324 -81.20553 3593 ft 229 kts 336°
2026-05-09 01:50 41.06930 -81.20723 3179 ft 232 kts
2026-05-09 01:50 41.08498 -81.20558 3037 ft 214 kts 356°
2026-05-09 01:51 41.09795 -81.21045 3061 ft 183 kts 318°
2026-05-09 01:51 41.10399 -81.22436 3025 ft 174 kts 278°
2026-05-09 01:51 41.10507 -81.23994 3025 ft 169 kts 272°
2026-05-09 01:51 41.10572 -81.25508 3010 ft 151 kts 271°
2026-05-09 01:52 41.10632 -81.26851 2937 ft 143 kts 271°
2026-05-09 01:52 41.10690 -81.28129 2802 ft 134 kts 271°
2026-05-09 01:52 41.10746 -81.29388 2810 ft 137 kts 271°
2026-05-09 01:52 41.10804 -81.30648 2808 ft 136 kts 272°
2026-05-09 01:53 41.10860 -81.31891 2812 ft 136 kts 271°
2026-05-09 01:53 41.10918 -81.33154 2807 ft 136 kts 271°
2026-05-09 01:53 41.10975 -81.34417 2805 ft 135 kts 271°
2026-05-09 01:53 41.11029 -81.35658 2809 ft 135 kts 272°
2026-05-09 01:54 41.11056 -81.36908 2810 ft 135 kts 262°
2026-05-09 01:54 41.10542 -81.37923 2787 ft 138 kts 218°
2026-05-09 01:54 41.09700 -81.38560 2823 ft 139 kts 212°
2026-05-09 01:54 41.08833 -81.39157 2813 ft 140 kts 212°
2026-05-09 01:55 41.07957 -81.39760 2816 ft 140 kts 212°
2026-05-09 01:55 41.07092 -81.40351 2811 ft 139 kts 212°
2026-05-09 01:55 41.06230 -81.40938 2812 ft 139 kts 212°
2026-05-09 01:55 41.05355 -81.41534 2809 ft 142 kts 212°
2026-05-09 01:56 41.04473 -81.42136 2850 ft 143 kts 212°
2026-05-09 01:56 41.03582 -81.42737 2818 ft 137 kts 212°
2026-05-09 01:56 41.02759 -81.43281 2833 ft 130 kts 211°
2026-05-09 01:56 41.01893 -81.43655 2812 ft 129 kts 196°
2026-05-09 01:57 41.01008 -81.43736 2816 ft 128 kts 186°
2026-05-09 01:57 41.00111 -81.43693 2682 ft 128 kts 183°
2026-05-09 01:57 40.99244 -81.43658 2536 ft 123 kts 186°
2026-05-09 01:57 40.98383 -81.43675 2366 ft 121 kts 187°
2026-05-09 01:58 40.97548 -81.43723 2212 ft 120 kts 188°
2026-05-09 01:58 40.96705 -81.43785 2050 ft 120 kts 187°
2026-05-09 01:58 40.95869 -81.43843 1890 ft 121 kts 186°
2026-05-09 01:58 40.95023 -81.43895 1720 ft 121 kts 185°
2026-05-09 01:59 40.94176 -81.43940 1563 ft 121 kts 184°
2026-05-09 01:59 40.93328 -81.43980 1402 ft 121 kts 183°
2026-05-09 01:59 40.92485 -81.44034 1239 ft 120 kts 183°
2026-05-09 01:59 40.91743 -81.44075 1214 ft 82 kts 182°
2026-05-09 02:00 40.91386 -81.44099 1210 ft 21 kts 178°
2026-05-09 02:00 40.91285 -81.43991 1209 ft 16 kts 139°
2026-05-09 02:00 40.91258 -81.43959 1209 ft 1 kts 138°
2026-05-09 02:00 40.91256 -81.43957 1209 ft 0 kts 137°
2026-05-09 02:01 40.91252 -81.43950 1209 ft 4 kts 127°
2026-05-09 02:01 40.91275 -81.43893 1209 ft 12 kts 20°
2026-05-09 02:01 40.91357 -81.43887 1209 ft 14 kts 335°
2026-05-09 02:01 40.91441 -81.43941 1211 ft 11 kts 350°
2026-05-09 02:02 40.91532 -81.43948 1212 ft 13 kts
2026-05-09 02:02 40.91618 -81.43903 1213 ft 13 kts 32°
2026-05-09 02:02 40.91676 -81.43817 1213 ft 10 kts 73°
2026-05-09 02:02 40.91690 -81.43753 1213 ft 5 kts 70°
2026-05-09 02:03 40.91727 -81.43706 1213 ft 7 kts 40°
2026-05-09 02:03 40.91751 -81.43661 1213 ft 7 kts 78°
2026-05-09 02:03 40.91740 -81.43619 1213 ft 0 kts 134°
2026-05-09 02:03 40.91732 -81.43608 1213 ft 1 kts 132°
2026-05-09 02:04 40.91718 -81.43571 1212 ft 5 kts 86°
2026-05-09 02:04 40.91736 -81.43540 1211 ft 5 kts 43°
2026-05-09 02:04 40.91769 -81.43518 1212 ft 3 kts 350°
2026-05-09 02:04 40.91782 -81.43530 1212 ft 2 kts 315°
2026-05-09 02:05 40.91789 -81.43544 1212 ft 1 kts 283°
2026-05-09 02:05 40.91779 -81.43567 1212 ft 0 kts 212°
2026-05-09 02:05 40.91774 -81.43567 1212 ft 0 kts 152°
2026-05-09 02:05 40.91771 -81.43565 1212 ft 0 kts 137°
2026-05-09 02:06 40.91774 -81.43568 1212 ft 0 kts 137°